TimeEDT,TemperatureF,Dew PointF,Humidity,Sea Level PressureIn,VisibilityMPH,Wind Direction,Wind SpeedMPH,Gust SpeedMPH,PrecipitationIn,Events,Conditions,WindDirDegrees,DateUTC
12:15 AM,51.8,50.0,94,30.21,10.0,Calm,Calm,-,N/A,,Clear,0,2013-09-19 04:15:00
12:35 AM,51.8,50.0,94,30.21,10.0,Calm,Calm,-,N/A,,Clear,0,2013-09-19 04:35:00
12:55 AM,51.8,50.0,94,30.21,10.0,Calm,Calm,-,N/A,,Clear,0,2013-09-19 04:55:00
1:15 AM,51.8,48.2,88,30.21,10.0,Calm,Calm,-,N/A,,Clear,0,2013-09-19 05:15:00
1:35 AM,51.8,48.2,88,30.21,10.0,Calm,Calm,-,N/A,,Clear,0,2013-09-19 05:35:00
1:55 AM,51.8,48.2,88,30.20,10.0,Calm,Calm,-,N/A,,Clear,0,2013-09-19 05:55:00
2:15 AM,51.8,48.2,88,30.20,10.0,Calm,Calm,-,N/A,,Clear,0,2013-09-19 06:15:00
2:35 AM,51.8,48.2,88,30.19,10.0,Calm,Calm,-,N/A,,Clear,0,2013-09-19 06:35:00
2:55 AM,50.0,48.2,94,30.19,10.0,Calm,Calm,-,N/A,,Clear,0,2013-09-19 06:55:00
3:15 AM,51.8,48.2,88,30.19,10.0,Calm,Calm,-,N/A,,Clear,0,2013-09-19 07:15:00
3:35 AM,51.8,50.0,94,30.18,10.0,Calm,Calm,-,N/A,,Clear,0,2013-09-19 07:35:00
3:55 AM,50.0,48.2,94,30.19,10.0,Calm,Calm,-,N/A,,Clear,0,2013-09-19 07:55:00
4:15 AM,50.0,48.2,94,30.18,10.0,Calm,Calm,-,N/A,,Clear,0,2013-09-19 08:15:00
4:35 AM,48.2,46.4,93,30.18,10.0,Calm,Calm,-,N/A,,Clear,0,2013-09-19 08:35:00
4:55 AM,48.2,46.4,93,30.18,10.0,Calm,Calm,-,N/A,,Clear,0,2013-09-19 08:55:00
5:15 AM,48.2,46.4,93,30.19,10.0,Calm,Calm,-,N/A,,Clear,0,2013-09-19 09:15:00
5:35 AM,46.4,44.6,93,30.19,10.0,Calm,Calm,-,N/A,,Clear,0,2013-09-19 09:35:00
5:55 AM,48.2,46.4,93,30.19,10.0,Calm,Calm,-,N/A,,Clear,0,2013-09-19 09:55:00
6:15 AM,46.4,44.6,93,30.20,10.0,Calm,Calm,-,N/A,,Clear,0,2013-09-19 10:15:00
6:35 AM,46.4,44.6,93,30.20,10.0,Calm,Calm,-,N/A,,Clear,0,2013-09-19 10:35:00
6:55 AM,48.2,46.4,93,30.20,10.0,Calm,Calm,-,N/A,,Clear,0,2013-09-19 10:55:00
7:15 AM,48.2,46.4,93,30.20,10.0,Calm,Calm,-,N/A,,Clear,0,2013-09-19 11:15:00
7:35 AM,48.2,46.4,93,30.21,10.0,Calm,Calm,-,N/A,,Clear,0,2013-09-19 11:35:00
7:55 AM,51.8,48.2,88,30.20,10.0,Calm,Calm,-,N/A,,Clear,0,2013-09-19 11:55:00
8:15 AM,55.4,51.8,88,30.20,10.0,Calm,Calm,-,N/A,,Clear,0,2013-09-19 12:15:00
8:35 AM,57.2,53.6,88,30.20,10.0,Calm,Calm,-,N/A,,Clear,0,2013-09-19 12:35:00
8:55 AM,60.8,53.6,77,30.19,10.0,Calm,Calm,-,N/A,,Clear,0,2013-09-19 12:55:00
9:15 AM,66.2,55.4,68,30.19,10.0,Calm,Calm,-,N/A,,Clear,0,2013-09-19 13:15:00
9:35 AM,69.8,55.4,60,30.19,10.0,NE,4.6,-,N/A,,Clear,50,2013-09-19 13:35:00
9:55 AM,69.8,53.6,56,30.20,10.0,NE,3.5,-,N/A,,Clear,40,2013-09-19 13:55:00
10:15 AM,71.6,51.8,50,30.20,10.0,ENE,3.5,-,N/A,,Clear,70,2013-09-19 14:15:00
10:35 AM,71.6,51.8,50,30.20,10.0,North,5.8,-,N/A,,Clear,10,2013-09-19 14:35:00
10:55 AM,71.6,51.8,50,30.19,10.0,NE,4.6,-,N/A,,Clear,50,2013-09-19 14:55:00
11:15 AM,71.6,51.8,50,30.19,10.0,NNE,3.5,-,N/A,,Clear,20,2013-09-19 15:15:00
11:35 AM,73.4,50.0,44,30.19,10.0,NNW,3.5,-,N/A,,Clear,340,2013-09-19 15:35:00
11:55 AM,73.4,48.2,41,30.19,10.0,Calm,Calm,-,N/A,,Clear,0,2013-09-19 15:55:00
12:15 PM,73.4,48.2,41,30.19,10.0,Calm,Calm,-,N/A,,Clear,0,2013-09-19 16:15:00
12:35 PM,73.4,46.4,38,30.18,10.0,Calm,Calm,-,N/A,,Clear,0,2013-09-19 16:35:00
12:55 PM,75.2,46.4,36,30.18,10.0,North,6.9,-,N/A,,Clear,10,2013-09-19 16:55:00
1:15 PM,75.2,46.4,36,30.17,10.0,Calm,Calm,-,N/A,,Clear,0,2013-09-19 17:15:00
1:35 PM,75.2,46.4,36,30.16,10.0,Calm,Calm,-,N/A,,Clear,0,2013-09-19 17:35:00
1:55 PM,75.2,46.4,36,30.15,10.0,Calm,Calm,-,N/A,,Clear,0,2013-09-19 17:55:00
2:15 PM,77.0,48.2,36,30.15,10.0,ENE,3.5,-,N/A,,Clear,70,2013-09-19 18:15:00
2:35 PM,77.0,48.2,36,30.14,10.0,SE,3.5,-,N/A,,Clear,140,2013-09-19 18:35:00
2:55 PM,77.0,48.2,36,30.13,10.0,Calm,Calm,-,N/A,,Clear,0,2013-09-19 18:55:00
3:15 PM,75.2,48.2,38,30.12,10.0,Calm,Calm,-,N/A,,Clear,0,2013-09-19 19:15:00
3:35 PM,75.2,51.8,44,30.12,10.0,East,5.8,-,N/A,,Clear,100,2013-09-19 19:35:00
3:55 PM,75.2,55.4,50,30.12,10.0,ENE,9.2,-,N/A,,Clear,70,2013-09-19 19:55:00
4:15 PM,75.2,55.4,50,30.12,10.0,ESE,8.1,-,N/A,,Clear,110,2013-09-19 20:15:00
4:35 PM,75.2,53.6,47,30.12,10.0,ESE,4.6,-,N/A,,Clear,110,2013-09-19 20:35:00
4:55 PM,75.2,55.4,50,30.12,10.0,East,6.9,-,N/A,,Clear,90,2013-09-19 20:55:00
5:15 PM,73.4,55.4,53,30.12,10.0,East,6.9,-,N/A,,Clear,80,2013-09-19 21:15:00
5:35 PM,73.4,55.4,53,30.12,10.0,ENE,8.1,-,N/A,,Clear,70,2013-09-19 21:35:00
5:55 PM,73.4,55.4,53,30.12,10.0,East,5.8,-,N/A,,Clear,80,2013-09-19 21:55:00
6:15 PM,71.6,55.4,57,30.12,10.0,East,6.9,-,N/A,,Clear,100,2013-09-19 22:15:00
6:35 PM,69.8,55.4,60,30.12,10.0,ENE,5.8,-,N/A,,Clear,70,2013-09-19 22:35:00
6:55 PM,68.0,55.4,64,30.13,10.0,East,4.6,-,N/A,,Clear,80,2013-09-19 22:55:00
7:15 PM,66.2,55.4,68,30.13,10.0,East,3.5,-,N/A,,Clear,100,2013-09-19 23:15:00
7:35 PM,64.4,55.4,73,30.13,10.0,East,4.6,-,N/A,,Clear,90,2013-09-19 23:35:00
7:55 PM,64.4,55.4,73,30.13,10.0,Calm,Calm,-,N/A,,Clear,0,2013-09-19 23:55:00
8:15 PM,62.6,55.4,77,30.14,10.0,East,3.5,-,N/A,,Clear,100,2013-09-20 00:15:00
8:35 PM,62.6,55.4,77,30.14,10.0,ESE,3.5,-,N/A,,Clear,110,2013-09-20 00:35:00
8:55 PM,60.8,55.4,82,30.14,10.0,Calm,Calm,-,N/A,,Clear,0,2013-09-20 00:55:00
9:15 PM,60.8,55.4,82,30.14,10.0,Calm,Calm,-,N/A,,Clear,0,2013-09-20 01:15:00
9:35 PM,60.8,55.4,82,30.14,10.0,Calm,Calm,-,N/A,,Clear,0,2013-09-20 01:35:00
9:55 PM,59.0,55.4,88,30.14,10.0,Calm,Calm,-,N/A,,Clear,0,2013-09-20 01:55:00
10:15 PM,59.0,53.6,82,30.13,10.0,Calm,Calm,-,N/A,,Clear,0,2013-09-20 02:15:00
10:35 PM,57.2,53.6,88,30.13,10.0,Calm,Calm,-,N/A,,Clear,0,2013-09-20 02:35:00
10:55 PM,57.2,51.8,82,30.13,10.0,Calm,Calm,-,N/A,,Clear,0,2013-09-20 02:55:00
11:15 PM,55.4,53.6,94,30.13,10.0,Calm,Calm,-,N/A,,Clear,0,2013-09-20 03:15:00
11:35 PM,57.2,55.4,94,30.12,10.0,Calm,Calm,-,N/A,,Clear,0,2013-09-20 03:35:00
11:55 PM,55.4,55.4,100,30.12,10.0,Calm,Calm,-,N/A,,Clear,0,2013-09-20 03:55:00